Regional Weather Roundup
Issued by NWS State College, PA

Home | Current Version | Previous Version | Text Only | Print | Product List | Glossary On
Versions: 1 2 3 4 5 6 7 8 9 10 11 12 13 14 15 16 17 18 19 20 21 22 23 24 25 26 27 28 29 30 31 32 33 34 35 36 37 38 39 40 41 42 43 44 45 46 47 48 49 50
000
ASUS41 KCTP 230810
RWRCTP

REGIONAL WEATHER ROUNDUP
NATIONAL WEATHER SERVICE STATE COLLEGE PA
400 AM EDT WED APR 23 2014

Note: "fair" indicates few or no clouds below 12,000 feet with no
significant weather and/or obstructions to visibility.

* = STATION THAT DOES NOT REPORT PRECIPITATION /E.G. RAIN...SNOW...ETC/
    THUNDER OR FOG.

PAZ002>004-007>009-013>016-020>023-029>032-230900-
WESTERN PENNSYLVANIA

CITY           SKY/WX    TMP DP  RH WIND       PRES   REMARKS
ERIE           CLOUDY    37  33  85 W12G21    29.84S
MEADVILLE      CLOUDY    35  31  85 NW13G20   29.82S
FRANKLIN*      CLOUDY    36  28  75 NW9G18    29.83S
NEW CASTLE     CLOUDY    38  33  82 NW8       29.87S
BEAVER COUNTY  NOT AVBL
BUTLER*        CLOUDY    37  30  75 NW7G17    29.85S
PITTSBURGH INT CLOUDY    40  33  76 NW17      29.85R
PITTSBURGH     MOCLDY    41  32  70 NW13G22   29.83R
INDIANA*       CLOUDY    37  36  93 NW12      29.81R
LATROBE        CLOUDY    39  37  93 NW9       29.84R
WASHINGTON CO* CLOUDY    41  32  70 NW8G16    29.88R
$$

PAZ004>006-010>012-017>019-024>028-033>037-041-042-045-046-049>053-230900-
CENTRAL PENNSYLVANIA

CITY           SKY/WX    TMP DP  RH WIND       PRES   REMARKS
BRADFORD       LGT SNOW  34  30  85 W14G23    29.70S FOG
DUBOIS         CLOUDY    37  31  78 NW16G22   29.75R
CLEARFIELD     CLOUDY    38  32  79 W12       29.74S
JOHNSTOWN      CLOUDY    36  31  82 W16       29.74S
ALTOONA        CLOUDY    42  34  73 NW18G29   29.74R
STATE COLLEGE  MOCLDY    42  29  60 NW14G25   29.71R
WILLIAMSPORT   CLOUDY    46  32  58 W14       29.65S
SELINSGROVE    MOCLDY    47  34  60 W13G23    29.68R
FT INDIANTOWN  NOT AVBL
CAPITAL CITY   PTCLDY    48  33  56 W14G21    29.68S
HARRISBURG     PTCLDY    49  35  58 NW13      29.67S
YORK           CLOUDY    45  34  65 W3        29.69S
$$

PAZ038>040-043-044-047-048-054-055-060>062-067>071-230900-
EASTERN PENNSYLVANIA

CITY           SKY/WX    TMP DP  RH WIND       PRES   REMARKS
SCRANTON       CLOUDY    45  32  60 W16       29.60S
MOUNT POCONO   CLOUDY    41  30  65 NW14G24   29.56S
ALLENTOWN      CLOUDY    48  31  51 W13G24    29.61R
QUAKERTOWN*    CLOUDY    46  32  57 W8        29.62R
READING        MOCLDY    48  33  56 W10       29.64R
LANCASTER      CLEAR     44  33  65 W10       29.66R
COATESVILLE    SUNNY     45  32  61 NW14      29.64F
POTTSTOWN      MOCLDY    46  34  62 W6G20     29.64R
BLUE BELL      PTCLDY    48  34  57 W7        29.62R
DOYLESTOWN     PTCLDY    47  33  58 NW16G28   29.59R
WILLOW GROVE   NOT AVBL
NORTH PHILA    MOCLDY    50  32  50 NW16G25   29.61S
PHILADELPHIA   MOCLDY    51  31  46 W12G26    29.63S
$$



USA.gov is the U.S. government's official web portal to all federal, state and local government web resources and services.